Simultaneous Nadir Overpasses (SNOs) Predictions

Prediction of SNOs over PacNW region [( 10.00, 139.50) to ( 22.70, 165.60)] between AQUA and NPP Satellites:

Table of predicted SNOs over PacNW region for the next 30.0 days since TLE Epoch: 1/14/2023
Index Date (AQUA) Time (AQUA) AQUA Lat,Lon Date (NPP) Time (NPP) NPP Lat,Lon Distance(km) Time Diff (sec)
1 01/18/2023 04:02:20 15.15, 143.15 01/18/2023 04:04:25 14.06, 138.32 533.79 125
2 01/20/2023 16:02:47 12.23, 147.10 01/20/2023 15:59:54 12.90, 143.67 379.92 173
3 01/28/2023 15:06:46 21.69, 162.67 01/28/2023 15:06:30 22.46, 158.66 421.88 16
4 01/31/2023 03:27:04 22.69, 150.85 01/31/2023 03:23:34 26.19, 146.45 591.32 210
5 02/08/2023 02:33:24 22.70, 164.33 02/08/2023 02:31:54 22.88, 160.00 444.33 90
6 02/08/2023 04:11:27 19.81, 140.30 02/08/2023 04:12:14 18.78, 135.64 502.47 47
7 02/10/2023 16:11:03 10.06, 144.88 02/10/2023 16:07:34 8.64, 141.14 439.89 209
